Weather History for Marianna, FL

Change the Weather History Date:

Sunday, October 7, 2012

  Actual Average Record
Temperature  
Mean Temperature 73 °F 72 °F  
Max Temperature 83 °F 83 °F 89 °F (2005)
Min Temperature 63 °F 60 °F 48 °F (2010)
Degree Days  
Heating Degree Days 0    
Month to date heating degree days 0  
Since 1 July heating degree days 0  
Cooling Degree Days 8    
Month to date cooling degree days 64  
Year to date cooling degree days 2650  
Growing Degree Days 23 (Base 50)    
Moisture  
Dew Point 64 °F    
Average Humidity 72    
Maximum Humidity 93    
Minimum Humidity 51    
Precipitation  
Precipitation 0.00 in 0.12 in 1.55 in (2013)
Month to date precipitation 0.25 0.71  
Year to date precipitation 54.67 42.84  
Sea Level Pressure  
Sea Level Pressure 30.00 in    
Wind  
Wind Speed 5 mph (NNW)    
Max Wind Speed 14 mph    
Max Gust Speed 22 mph    
Visibility 9 miles    
Events      
T = Trace of Precipitation, MM = Missing Value Source: NWS Daily Summary

Daily Weather History Graph

Daily Weather History Graph

Search for Another Location

Airport:

Trip Planner

Search our weather history database for the weather conditions in past years. The results will help you decide how hot, cold, wet, or windy it might be!

Date:

Astronomy

Oct. 07, 2012 Rise Set
Actual Time 6:38 AM CDT 6:17 PM CDT
Civil Twilight 6:14 AM CDT 6:42 PM CDT
Nautical Twilight 5:46 AM CDT 7:10 PM CDT
Astronomical Twilight 5:18 AM CDT 7:37 PM CDT
Moon 11:44 PM CDT (10/7) 12:59 PM CDT (10/7)
Length of Visible Light 12h 27m
Length of Day
11h 39m
Waning Gibbous, 56% of the Moon is Illuminated
Oct 7
Waning Gibbous
Oct 8
Last Quarter
Oct 15
New
Oct 21
First Quarter
Oct 29
Full

Hourly Weather History & Observations

Time (CDT) Temp. Heat Index Dew Point Humidity Pressure Visibility Wind Dir Wind Speed Gust Speed Precip Events Conditions
12:53 AM 70.0 °F - 66.9 °F 90% 29.96 in 10.0 mi NW 3.5 mph - N/A   Scattered Clouds
1:53 AM 69.1 °F - 66.0 °F 90% 29.96 in 10.0 mi Calm Calm - N/A   Clear
2:53 AM 68.0 °F - 64.0 °F 87% 29.96 in 9.0 mi Calm Calm - N/A   Clear
3:53 AM 66.9 °F - 64.0 °F 90% 29.96 in 8.0 mi Calm Calm - N/A   Clear
4:53 AM 66.9 °F - 63.0 °F 87% 29.97 in 7.0 mi Calm Calm - N/A   Clear
5:53 AM 66.0 °F - 63.0 °F 90% 29.99 in 6.0 mi NNW 4.6 mph - N/A   Clear
6:53 AM 64.9 °F - 63.0 °F 93% 29.99 in 5.0 mi Calm Calm - N/A   Clear
7:51 AM 66.2 °F - 64.4 °F 94% 30.02 in 6.0 mi Calm Calm - N/A   Scattered Clouds
7:53 AM 66.9 °F - 63.0 °F 87% 30.02 in 6.0 mi NE 3.5 mph - N/A   Scattered Clouds
8:01 AM 66.2 °F - 64.4 °F 94% 30.02 in 6.0 mi Calm Calm - N/A   Mostly Cloudy
8:53 AM 68.0 °F - 64.0 °F 87% 30.03 in 5.0 mi NNW 4.6 mph - N/A   Overcast
9:20 AM 71.6 °F - 64.4 °F 78% 30.03 in 7.0 mi Variable 5.8 mph - N/A   Partly Cloudy
9:53 AM 73.9 °F - 64.9 °F 73% 30.04 in 10.0 mi NNW 6.9 mph - N/A   Clear
10:53 AM 78.1 °F - 64.9 °F 64% 30.03 in 10.0 mi Variable 4.6 mph - N/A   Clear
11:53 AM 81.0 °F 82.7 °F 64.9 °F 58% 30.02 in 10.0 mi North 9.2 mph - 0.01 in   Clear
12:53 PM 81.0 °F 82.7 °F 64.9 °F 58% 30.01 in 10.0 mi NNW 12.7 mph - N/A   Partly Cloudy
1:53 PM 81.0 °F 82.5 °F 64.0 °F 56% 29.99 in 10.0 mi NNW 9.2 mph - N/A   Clear
2:53 PM 82.0 °F 83.1 °F 63.0 °F 52% 29.97 in 10.0 mi North 9.2 mph - N/A   Clear
3:53 PM 82.0 °F 83.1 °F 63.0 °F 52% 29.97 in 10.0 mi North 6.9 mph - N/A   Clear
4:53 PM 81.0 °F 82.2 °F 63.0 °F 54% 29.96 in 10.0 mi NNW 6.9 mph - N/A   Clear
5:53 PM 78.1 °F - 63.0 °F 60% 29.97 in 10.0 mi North 4.6 mph - N/A   Clear
6:53 PM 73.9 °F - 64.0 °F 71% 29.99 in 10.0 mi North 3.5 mph - N/A   Clear
7:53 PM 72.0 °F - 64.0 °F 76% 30.01 in 10.0 mi NNW 5.8 mph - N/A   Clear
8:53 PM 70.0 °F - 63.0 °F 78% 30.02 in 10.0 mi North 5.8 mph - N/A   Clear
9:53 PM 68.0 °F - 62.1 °F 81% 30.04 in 10.0 mi North 4.6 mph - N/A   Clear
10:53 PM 66.0 °F - 61.0 °F 84% 30.03 in 10.0 mi NNW 4.6 mph - N/A   Clear
11:53 PM 64.0 °F - 59.0 °F 84% 30.03 in 10.0 mi North 5.8 mph - N/A   Clear